Location: Lombard
(41.8800°N, 88.0080°W)
Time: 02:59:57
(UTC-05:00)

CAS-4A - Pass Details

Date: 25 May 2022
Orbit: 523 x 537 km, 43.0° (Epoch: 27 June)

Event Time Altitude Azimuth Distance (km) Brightness Sun altitude
Rises 20:56:33 0° 273° (W) 2,658 ? -7.3°
Reaches altitude 10° 20:58:48 10° 275° (W) 1,766 ? -7.6°
Maximum altitude 21:02:50 74° 0° (N) 549 ? -8.2°
Drops below altitude 10° 21:06:51 10° 87° (E) 1,758 ? -8.8°
Enters shadow 21:07:50 - 88° (E) 2,146 ? -8.9°
